Precipitable_Water
0.47 0.39 0.35 0.38 0.39 0.36 0.33 0.31 0.29 0.32 0.38 0.35 0.32 0.31 0.34 0.38 0.36 0.36 0.37 0.35 0.35 0.35 0.40 0.42 0.42 0.43 0.43 0.44 0.45 0.45 0.45 0.47 0.50 0.56 0.59 0.66 0.66 0.71 0.73 0.75 0.76 0.74 0.71 0.68
0.41 0.36 0.43 0.44 0.40 0.37 0.34 0.31 0.31 0.36 0.38 0.35 0.34 0.33 0.37 0.38 0.38 0.37 0.34 0.35 0.37 0.38 0.40 0.42 0.44 0.45 0.44 0.44 0.45 0.45 0.46 0.47 0.49 0.59 0.63 0.63 0.64 0.70 0.72 0.74 0.73 0.74 0.71 0.66
0.40 0.44 0.47 0.43 0.40 0.35 0.34 0.34 0.35 0.34 0.37 0.39 0.36 0.32 0.36 0.40 0.39 0.36 0.36 0.38 0.39 0.39 0.41 0.44 0.45 0.45 0.45 0.44 0.44 0.44 0.45 0.46 0.49 0.56 0.60 0.63 0.66 0.60 0.60 0.65 0.68 0.72 0.74 0.70
0.42 0.47 0.44 0.39 0.36 0.39 0.33 0.41 0.39 0.36 0.35 0.30 0.38 0.24 0.32 0.34 0.34 0.33 0.36 0.39 0.40 0.42 0.44 0.45 0.45 0.44 0.45 0.46 0.47 0.45 0.45 0.45 0.47 0.51 0.52 0.54 0.54 0.49 0.53 0.54 0.60 0.63 0.67 0.69
0.41 0.39 0.39 0.38 0.40 0.43 0.37 0.42 0.39 0.37 0.34 0.32 0.32 0.27 0.28 0.32 0.30 0.31 0.37 0.38 0.42 0.44 0.44 0.45 0.46 0.46 0.47 0.48 0.48 0.49 0.48 0.47 0.46 0.48 0.48 0.48 0.47 0.50 0.53 0.53 0.50 0.53 0.56 0.59
0.45 0.50 0.46 0.44 0.45 0.43 0.41 0.37 0.37 0.37 0.34 0.24 0.29 0.28 0.24 0.27 0.29 0.31 0.36 0.39 0.42 0.44 0.44 0.45 0.47 0.47 0.48 0.50 0.50 0.50 0.50 0.49 0.50 0.49 0.48 0.46 0.45 0.46 0.46 0.48 0.47 0.49 0.51 0.54
0.45 0.45 0.46 0.47 0.41 0.42 0.40 0.34 0.26 0.25 0.26 0.21 0.31 0.27 0.26 0.31 0.33 0.34 0.35 0.38 0.41 0.43 0.44 0.44 0.44 0.45 0.48 0.50 0.51 0.50 0.49 0.50 0.52 0.52 0.50 0.50 0.49 0.48 0.46 0.46 0.47 0.47 0.48 0.50
0.37 0.31 0.44 0.49 0.45 0.40 0.40 0.37 0.30 0.21 0.20 0.23 0.32 0.24 0.27 0.36 0.39 0.40 0.39 0.38 0.40 0.40 0.41 0.39 0.41 0.43 0.45 0.47 0.47 0.48 0.47 0.47 0.51 0.53 0.53 0.54 0.53 0.53 0.52 0.52 0.50 0.49 0.49 0.50
0.37 0.34 0.48 0.49 0.47 0.42 0.37 0.30 0.38 0.30 0.30 0.27 0.25 0.30 0.32 0.34 0.35 0.35 0.36 0.36 0.36 0.38 0.40 0.41 0.44 0.46 0.45 0.45 0.44 0.44 0.44 0.47 0.49 0.50 0.53 0.54 0.55 0.54 0.55 0.55 0.55 0.54 0.53 0.51
0.42 0.30 0.37 0.41 0.41 0.40 0.40 0.45 0.32 0.38 0.25 0.23 0.24 0.22 0.18 0.23 0.32 0.34 0.34 0.34 0.36 0.38 0.39 0.40 0.41 0.43 0.42 0.41 0.41 0.40 0.38 0.37 0.39 0.40 0.44 0.48 0.50 0.52 0.52 0.54 0.55 0.57 0.58 0.56
0.42 0.37 0.24 0.37 0.29 0.27 0.32 0.29 0.29 0.28 0.25 0.19 0.17 0.16 0.24 0.30 0.34 0.34 0.36 0.38 0.38 0.40 0.39 0.36 0.38 0.38 0.40 0.35 0.34 0.34 0.33 0.33 0.33 0.35 0.36 0.35 0.37 0.40 0.43 0.46 0.50 0.53 0.56 0.58
0.40 0.36 0.24 0.22 0.31 0.37 0.37 0.32 0.32 0.26 0.24 0.27 0.27 0.26 0.33 0.33 0.34 0.35 0.34 0.36 0.39 0.40 0.38 0.37 0.40 0.35 0.33 0.32 0.31 0.29 0.26 0.26 0.27 0.28 0.28 0.30 0.31 0.31 0.32 0.34 0.39 0.46 0.50 0.52
0.40 0.32 0.21 0.18 0.21 0.29 0.29 0.30 0.32 0.30 0.28 0.21 0.19 0.19 0.32 0.34 0.34 0.39 0.38 0.38 0.39 0.39 0.36 0.34 0.34 0.31 0.27 0.25 0.25 0.23 0.20 0.21 0.23 0.23 0.23 0.25 0.24 0.24 0.24 0.25 0.27 0.30 0.35 0.43
0.37 0.23 0.19 0.15 0.16 0.21 0.24 0.28 0.29 0.30 0.25 0.27 0.27 0.24 0.29 0.37 0.39 0.41 0.38 0.36 0.35 0.33 0.27 0.24 0.24 0.23 0.23 0.18 0.18 0.16 0.14 0.14 0.16 0.19 0.18 0.19 0.21 0.21 0.22 0.21 0.20 0.21 0.23 0.25
0.29 0.18 0.20 0.21 0.22 0.21 0.21 0.21 0.19 0.18 0.18 0.18 0.18 0.21 0.24 0.30 0.32 0.32 0.35 0.29 0.26 0.27 0.22 0.20 0.19 0.19 0.20 0.20 0.18 0.16 0.14 0.14 0.14 0.13 0.13 0.13 0.14 0.15 0.16 0.18 0.18 0.17 0.17 0.18
0.27 0.17 0.19 0.15 0.17 0.16 0.14 0.14 0.13 0.16 0.17 0.17 0.19 0.19 0.22 0.25 0.24 0.23 0.23 0.20 0.18 0.20 0.16 0.16 0.16 0.17 0.17 0.18 0.20 0.17 0.15 0.16 0.15 0.14 0.13 0.13 0.13 0.12 0.12 0.13 0.13 0.13 0.13 0.15
0.17 0.16 0.13 0.09 0.13 0.14 0.12 0.11 0.15 0.15 0.16 0.17 0.15 0.19 0.20 0.19 0.18 0.17 0.18 0.17 0.15 0.16 0.15 0.15 0.17 0.17 0.18 0.18 0.20 0.19 0.16 0.16 0.15 0.15 0.15 0.15 0.14 0.13 0.13 0.13 0.12 0.10 0.10 0.10
0.14 0.14 0.15 0.11 0.13 0.08 0.10 0.15 0.16 0.15 0.15 0.15 0.16 0.17 0.18 0.17 0.17 0.17 0.20 0.19 0.18 0.18 0.18 0.17 0.19 0.20 0.20 0.20 0.19 0.18 0.16 0.16 0.15 0.14 0.13 0.14 0.14 0.13 0.13 0.12 0.12 0.11 0.11 0.11
0.17 0.16 0.14 0.11 0.10 0.11 0.12 0.13 0.12 0.12 0.10 0.15 0.16 0.16 0.15 0.16 0.17 0.16 0.18 0.19 0.19 0.19 0.18 0.19 0.20 0.20 0.20 0.19 0.18 0.17 0.16 0.16 0.14 0.13 0.13 0.12 0.12 0.12 0.12 0.11 0.10 0.10 0.10 0.09
0.12 0.16 0.14 0.12 0.09 0.07 0.09 0.13 0.16 0.14 0.09 0.17 0.18 0.16 0.17 0.16 0.12 0.13 0.17 0.19 0.17 0.17 0.17 0.18 0.20 0.20 0.20 0.19 0.17 0.16 0.14 0.13 0.12 0.12 0.12 0.12 0.12 0.12 0.11 0.11 0.11 0.11 0.11 0.10
0.10 0.11 0.10 0.10 0.10 0.11 0.14 0.17 0.18 0.10 0.10 0.19 0.18 0.17 0.16 0.15 0.16 0.17 0.18 0.18 0.19 0.19 0.20 0.21 0.21 0.19 0.19 0.18 0.17 0.14 0.12 0.11 0.11 0.11 0.11 0.11 0.11 0.11 0.11 0.11 0.11 0.12 0.11 0.11
0.09 0.08 0.09 0.11 0.09 0.07 0.15 0.15 0.12 0.15 0.18 0.17 0.18 0.18 0.17 0.18 0.18 0.18 0.19 0.19 0.20 0.21 0.21 0.20 0.18 0.18 0.18 0.17 0.14 0.11 0.10 0.11 0.10 0.10 0.09 0.09 0.10 0.11 0.12 0.12 0.12 0.12 0.11 0.11
0.09 0.09 0.10 0.11 0.11 0.14 0.17 0.15 0.17 0.17 0.16 0.15 0.16 0.17 0.18 0.17 0.17 0.18 0.18 0.20 0.21 0.20 0.19 0.20 0.18 0.17 0.15 0.13 0.12 0.10 0.09 0.10 0.09 0.09 0.09 0.11 0.13 0.13 0.12 0.11 0.11 0.10 0.10 0.10
0.13 0.13 0.13 0.12 0.13 0.12 0.15 0.16 0.16 0.16 0.16 0.17 0.18 0.18 0.19 0.18 0.19 0.20 0.22 0.21 0.20 0.20 0.19 0.18 0.15 0.12 0.11 0.11 0.10 0.10 0.10 0.10 0.10 0.11 0.13 0.13 0.13 0.13 0.13 0.13 0.13 0.13 0.12 0.12
0.12 0.15 0.12 0.14 0.14 0.15 0.16 0.16 0.16 0.16 0.16 0.16 0.18 0.19 0.19 0.20 0.20 0.22 0.21 0.21 0.20 0.19 0.17 0.14 0.11 0.10 0.09 0.10 0.09 0.09 0.10 0.11 0.13 0.14 0.13 0.13 0.13 0.13 0.13 0.13 0.13 0.13 0.13 0.13
0.13 0.12 0.13 0.12 0.14 0.15 0.14 0.16 0.17 0.16 0.16 0.18 0.18 0.19 0.21 0.21 0.21 0.21 0.19 0.19 0.18 0.15 0.13 0.11 0.10 0.09 0.09 0.09 0.09 0.10 0.12 0.15 0.14 0.13 0.13 0.13 0.13 0.13 0.11 0.10 0.10 0.12 0.13 0.14
Wind_Speed
24 25 26 28 29 31 32 33 33 33 30 31 30 30 31 31 27 25 22 20 15 13 13 14 16 17 17 18 19 20 20 21 22 24 27 30 32 33 35 37 37 38 37 38
24 30 31 30 27 29 31 32 32 31 26 25 30 32 32 28 28 22 19 14 14 14 15 15 16 17 19 20 20 19 19 19 20 22 23 25 28 30 32 34 36 38 39 39
33 30 27 28 29 29 29 29 31 32 30 30 30 31 28 24 26 17 13 14 14 14 15 16 17 18 19 19 19 18 18 18 20 21 23 24 26 28 29 32 34 36 39 40
30 27 26 25 26 26 30 28 30 31 28 28 25 31 29 23 17 15 14 14 14 16 16 17 18 19 19 19 18 18 18 19 21 22 24 26 27 28 29 31 32 35 37 39
21 20 21 24 25 25 27 26 27 28 31 32 29 27 25 24 21 17 17 17 17 17 18 19 20 20 19 19 19 19 19 20 22 24 25 26 28 30 31 31 33 34 36 38
28 23 25 27 25 27 27 30 31 30 29 31 32 27 26 20 19 19 19 19 19 20 21 22 23 24 23 23 22 22 23 24 25 24 24 25 27 29 31 32 33 35 36 38
23 27 27 28 29 28 28 30 30 29 28 33 28 27 32 25 23 24 23 24 25 26 26 27 28 28 28 28 29 30 31 30 28 27 26 26 27 28 30 31 32 34 35 37
30 33 25 24 27 27 29 29 28 30 33 34 26 32 31 24 25 26 27 29 31 31 32 30 30 31 31 32 33 33 34 33 32 32 31 30 30 30 31 32 33 35 35 37
29 30 23 27 27 28 24 27 26 29 34 34 38 40 39 29 29 30 30 31 31 30 30 32 33 33 35 36 36 37 37 36 36 36 36 35 34 34 33 33 34 35 37 38
25 31 29 26 28 30 29 28 28 25 23 26 33 40 40 37 32 31 30 31 33 34 34 36 36 36 36 36 37 38 38 38 38 38 38 38 37 37 37 37 36 36 37 38
29 29 36 32 32 34 29 29 31 33 33 35 38 39 37 30 30 32 33 34 35 36 36 37 37 38 39 39 39 40 39 39 38 38 38 38 38 38 38 38 38 38 38 39
31 28 31 41 38 36 34 35 35 33 31 32 33 36 38 36 37 37 37 38 38 38 37 38 39 40 41 41 40 40 39 39 39 39 39 39 39 39 39 40 41 41 41 41
25 25 28 32 32 27 29 33 34 37 40 45 41 40 35 35 34 34 37 38 39 41 42 42 43 43 43 43 42 41 41 41 41 41 41 41 41 42 42 42 42 43 43 43
30 34 36 35 39 39 38 38 38 36 34 35 37 42 39 36 35 38 40 42 43 44 45 46 46 45 44 44 44 44 44 44 44 45 44 45 46 46 46 47 47 47 46 45
32 36 38 40 41 42 43 43 45 45 47 46 51 48 48 48 50 48 47 46 46 45 45 45 45 46 46 46 46 46 47 47 47 48 49 50 50 51 51 51 51 52 52 52
34 36 37 42 42 44 47 49 50 48 49 51 51 52 50 45 42 42 43 44 45 45 45 44 44 45 46 47 48 48 49 50 51 52 54 55 55 56 56 56 57 57 57 57
38 37 37 45 41 43 43 48 47 49 49 49 48 45 43 43 43 43 44 44 44 44 44 43 44 44 45 46 49 51 52 53 54 56 57 58 58 59 59 60 61 61 61 61
39 38 37 42 40 43 44 40 39 41 44 44 43 41 40 40 41 42 41 40 41 41 42 42 43 44 46 48 50 52 54 55 57 57 58 59 60 62 63 63 64 65 65 65
40 40 37 36 41 45 48 45 45 42 45 41 38 35 35 36 38 39 36 36 38 39 40 41 43 44 46 48 49 50 52 55 57 58 60 61 62 65 66 68 68 69 70 70
33 36 37 37 38 40 41 33 33 34 40 33 31 31 34 36 37 37 35 37 38 37 39 40 41 44 45 46 47 49 52 54 56 59 61 63 65 67 68 70 71 72 73 74
32 33 37 38 40 40 36 33 31 32 34 28 27 31 35 35 36 37 37 37 36 37 37 38 40 41 43 45 47 50 52 54 58 61 63 65 67 68 69 71 71 72 73 74
33 32 32 31 33 35 29 27 28 28 26 29 32 35 37 36 37 37 36 36 35 35 36 38 40 42 44 46 48 51 54 57 60 62 64 66 67 68 69 70 71 71 72 73
32 34 33 32 31 30 30 33 34 35 35 37 39 37 36 35 35 35 35 35 35 37 37 39 41 44 45 47 49 53 56 59 61 62 63 64 65 66 67 67 67 66 66 66
37 38 36 35 36 38 37 36 36 35 35 36 35 35 34 35 36 36 35 35 36 37 38 40 42 44 46 48 51 54 57 58 59 60 60 61 61 60 58 56 56 56 56 56
34 30 32 34 36 36 36 35 34 34 34 35 35 35 35 36 36 36 36 36 37 38 38 39 41 44 47 50 52 54 54 55 54 55 55 54 53 51 51 51 50 50 51 51
34 36 33 34 35 35 36 34 33 34 36 36 36 35 35 35 35 35 35 35 36 37 38 40 42 45 49 51 51 50 49 49 50 50 49 49 47 46 45 45 44 44 46 46
Wind_Direction
265 267 268 272 270 273 280 284 285 287 290 290 289 291 294 294 294 291 290 286 283 281 290 296 300 302 302 301 299 294 285 276 271 266 262 258 256 255 254 254 253 252 251 251
269 267 271 274 277 278 279 280 283 287 290 288 289 292 293 289 291 293 289 279 281 285 290 296 300 303 304 303 302 298 293 284 277 271 270 264 261 259 258 256 255 252 251 251
264 271 278 272 271 272 273 276 281 286 293 288 288 288 294 287 285 291 279 283 284 286 290 297 301 304 304 304 303 301 297 291 286 278 274 270 267 266 264 261 258 255 254 253
268 271 268 266 267 272 275 279 283 285 286 289 293 291 294 289 277 276 288 290 289 288 290 293 297 303 304 303 300 301 300 297 291 286 279 274 271 270 268 266 264 260 257 256
266 264 265 264 269 271 279 284 281 282 281 286 280 283 284 286 274 268 283 285 291 293 295 296 297 298 300 298 298 296 299 300 297 294 285 280 276 273 271 269 268 264 261 260
265 269 269 270 273 271 281 280 278 279 281 276 281 270 285 280 276 270 277 281 285 290 292 294 294 295 296 296 295 294 295 299 299 296 292 288 283 279 275 273 270 268 265 263
266 268 272 273 274 275 274 278 282 275 270 274 283 273 273 277 277 274 273 276 282 285 286 290 290 291 291 290 292 293 295 295 294 292 292 290 288 284 281 278 274 272 270 266
277 280 270 272 274 280 280 274 272 280 279 281 273 272 279 280 275 275 275 277 279 282 286 286 287 288 288 290 291 292 293 292 290 290 290 289 288 285 282 280 278 275 273 271
280 272 276 277 279 280 278 274 284 282 279 277 273 274 276 275 277 276 274 277 280 282 284 286 288 287 288 289 289 290 289 287 287 286 286 285 285 285 284 283 280 276 275 273
277 278 278 279 281 275 275 279 280 275 275 272 274 280 282 281 275 275 276 278 281 282 284 285 287 287 288 289 290 289 288 287 286 285 284 283 283 282 282 281 281 280 278 276
280 276 277 281 277 280 276 276 271 275 272 276 279 278 286 284 279 276 277 279 281 283 285 286 286 287 288 288 288 288 288 288 287 285 284 283 282 282 281 280 280 279 278 278
278 281 278 279 282 282 279 277 275 273 276 272 275 274 282 283 279 279 277 278 278 281 284 284 286 287 287 288 289 288 288 287 286 285 285 283 282 281 281 281 280 278 278 277
280 277 284 285 281 280 275 277 275 274 274 271 275 280 283 279 277 276 278 278 278 279 281 283 285 286 286 287 287 288 288 287 286 286 284 283 283 283 282 282 281 279 279 278
277 275 273 275 280 287 283 282 283 282 280 278 271 283 281 277 281 281 280 278 278 279 280 281 283 284 285 285 285 286 287 286 286 286 285 283 283 283 281 281 280 279 279 278
275 274 275 275 277 279 280 280 280 276 277 276 282 282 281 280 282 282 278 278 279 278 279 280 281 282 283 283 284 285 285 286 287 287 286 285 284 283 282 281 280 279 279 277
275 279 281 280 280 280 279 278 278 278 278 278 279 279 282 285 283 280 278 278 279 278 278 280 281 283 283 284 283 285 285 285 286 287 286 286 285 284 283 281 280 280 279 277
277 279 281 279 283 283 277 277 278 278 277 279 280 285 286 283 282 281 280 279 279 278 277 279 281 282 283 284 285 285 286 287 287 287 287 286 285 284 283 282 281 280 279 278
276 277 278 280 283 274 282 283 283 282 282 283 284 283 283 283 283 283 281 279 278 280 278 279 281 283 285 286 286 286 286 287 288 288 288 287 286 285 284 282 281 280 279 277
270 274 278 277 275 280 284 285 284 285 284 285 281 280 284 286 285 283 283 281 281 283 282 281 282 285 287 288 288 289 289 289 289 289 289 289 288 287 285 283 281 280 279 277
277 273 273 277 278 279 287 288 287 287 283 286 281 279 284 288 285 285 286 287 286 284 285 285 286 288 290 291 291 291 292 292 292 292 291 291 290 288 287 285 283 281 279 277
280 278 273 275 277 280 285 286 285 280 289 279 278 284 287 286 284 287 287 287 286 286 287 289 290 291 292 294 294 294 294 294 295 294 294 293 292 290 288 287 284 282 280 278
278 280 279 279 279 281 286 281 277 286 283 280 284 288 288 287 287 287 287 287 288 290 291 291 292 293 295 297 297 297 297 298 297 297 296 295 294 292 291 288 286 283 281 278
277 276 278 275 277 283 280 279 281 282 281 283 286 287 287 286 286 287 288 289 290 291 293 294 295 296 298 299 300 300 300 301 300 300 299 298 297 295 293 291 288 285 282 279
278 277 275 277 276 278 280 279 280 282 282 285 285 286 287 285 287 287 289 289 291 292 294 296 297 298 300 301 302 302 303 303 303 302 302 302 301 299 297 294 291 289 286 283
278 280 277 276 279 281 279 279 280 281 283 285 285 285 285 286 286 287 289 290 291 293 295 297 299 301 303 304 305 305 305 306 306 306 306 305 305 303 301 298 295 292 289 286
275 273 271 277 282 279 280 282 283 284 286 285 285 283 285 286 286 288 288 290 292 294 296 298 301 303 305 307 307 307 308 309 310 310 310 309 308 308 306 304 301 297 295 291